Le nostre stazioni meteo in Italia

Pubblicità
Il mio iltempo24.it
Capo Carbonara, Italia (16564): Temperatura & dewpoint: 13.05.2019 21:00:00 - 19.05.2019 21:00:00 (CEST)Capo Carbonara, Italia (16564): velocità del vento: 13.05.2019 21:00:00 - 19.05.2019 21:00:00 (CEST)Capo Carbonara, Italia (16564): direzione del vento: 13.05.2019 21:00:00 - 19.05.2019 21:00:00 (CEST)Capo Carbonara, Italia (16564): reduced air pressure: 13.05.2019 21:00:00 - 19.05.2019 21:00:00 (CEST)Capo Carbonara, Italia (16564): visibility: 13.05.2019 21:00:00 - 19.05.2019 21:00:00 (CEST)
Data & Tempo tt [°C] td [°C] ff [km/h] ff [kn] dd ppp [hPa] vv [km]
19.05.2019 21:00:00 17,0 11,0 34 18 O - 10
19.05.2019 20:00:00 17,4 13,4 26 14 OSO 1008,3 20
19.05.2019 19:00:00 18,0 14,0 31 17 SO - 10
19.05.2019 18:00:00 16,0 13,0 44 24 OSO - 10
19.05.2019 17:00:00 18,8 14,1 44 24 OSO 1007,9 10
19.05.2019 16:00:00 19,0 14,0 44 24 SO - 10
19.05.2019 15:00:00 19,0 15,0 37 20 SO - 10
19.05.2019 14:00:00 18,4 12,6 35 19 SO 1007,8 20
19.05.2019 13:00:00 19,0 14,0 31 17 SO - 10
19.05.2019 12:00:00 17,0 12,0 26 14 OSO - 10
19.05.2019 11:00:00 16,4 11,3 42 23 O 1007,7 20
19.05.2019 10:00:00 15,0 11,0 41 22 O - 10
19.05.2019 09:00:00 14,0 10,0 37 20 O - 10
19.05.2019 08:00:00 13,8 9,7 26 14 ONO 1007,4 20
19.05.2019 07:00:00 14,0 10,0 29 16 ONO - 10
19.05.2019 06:00:00 14,0 10,0 29 16 O - 10
19.05.2019 05:00:00 14,0 10,6 35 19 O 1006,7 20
19.05.2019 04:00:00 14,0 10,0 22 12 O - 10
19.05.2019 03:00:00 15,0 11,0 28 15 NO - 10
19.05.2019 02:00:00 14,8 11,1 26 14 ONO 1007,5 20
19.05.2019 01:00:00 15,0 11,0 37 20 O - 10
19.05.2019 00:00:00 15,0 11,0 24 13 O - 10
18.05.2019 23:00:00 15,2 11,6 26 14 ONO 1008,1 10
18.05.2019 22:00:00 16,0 12,0 29 16 O - 10
18.05.2019 21:00:00 17,0 12,0 39 21 O - 10
18.05.2019 20:00:00 18,4 12,2 34 18 ONO 1006,5 20
18.05.2019 19:00:00 18,0 12,0 59 32 O - 10
18.05.2019 18:00:00 19,0 12,0 55 30 O - 10
18.05.2019 17:00:00 19,8 12,3 55 30 O 1004,5 20
18.05.2019 16:00:00 19,0 15,0 50 27 SO - 10
18.05.2019 15:00:00 20,0 15,0 31 17 SSO - 10
18.05.2019 14:00:00 19,8 14,1 31 17 OSO 1005,1 20
18.05.2019 13:00:00 20,0 13,0 39 21 OSO - 10
18.05.2019 12:00:00 18,0 14,0 37 20 OSO - 10
18.05.2019 11:00:00 17,4 12,7 44 24 OSO 1004,7 10
18.05.2019 10:00:00 16,0 12,0 41 22 O - 10
18.05.2019 09:00:00 15,0 12,0 57 31 O - 10
18.05.2019 08:00:00 15,2 12,2 57 31 OSO 1002,4 10
18.05.2019 07:00:00 15,0 12,0 63 34 OSO - 10
18.05.2019 06:00:00 15,0 12,0 59 32 SO - 10
18.05.2019 05:00:00 15,8 12,7 61 33 SO 1002,5 10
18.05.2019 04:00:00 16,0 13,0 59 32 SO - 10
18.05.2019 03:00:00 16,0 13,0 59 32 SO - 10
18.05.2019 02:00:00 15,8 12,7 57 31 SO 1003,6 10
18.05.2019 01:00:00 16,0 12,0 55 30 SO - 10
18.05.2019 00:00:00 16,0 13,0 65 35 SO - 10
17.05.2019 23:00:00 16,0 12,7 67 36 SO 1003,9 10
17.05.2019 22:00:00 16,0 13,0 54 29 ENE - 10
17.05.2019 21:00:00 16,0 13,0 11 6 SSO - 10
17.05.2019 20:00:00 16,4 13,4 8 4 NE 1003,9 10
17.05.2019 19:00:00 17,0 14,0 21 11 ENE - 10
17.05.2019 18:00:00 17,0 14,0 22 12 ENE - 10
17.05.2019 17:00:00 17,8 14,9 21 11 E 1004,7 10
17.05.2019 16:00:00 18,0 15,0 26 14 E - 10
17.05.2019 15:00:00 18,0 15,0 29 16 E - 10
17.05.2019 14:00:00 17,6 14,5 31 17 E 1006,7 10
17.05.2019 13:00:00 19,0 16,0 35 19 E - 10
17.05.2019 12:00:00 19,0 15,0 34 18 E - 10
17.05.2019 11:00:00 17,8 14,8 35 19 E 1007,5 20
17.05.2019 10:00:00 16,0 13,0 31 17 E - 10
17.05.2019 09:00:00 15,0 12,0 28 15 E - 10
17.05.2019 08:00:00 15,0 11,8 31 17 ESE 1008,6 20
17.05.2019 07:00:00 14,0 11,0 29 16 ESE - 10
17.05.2019 06:00:00 13,0 10,0 11 6 ENE - 10
17.05.2019 05:00:00 13,2 10,4 11 6 ENE 1009,1 20
17.05.2019 04:00:00 13,0 11,0 11 6 ENE - 10
17.05.2019 03:00:00 14,0 11,0 5 3 S - 10
17.05.2019 02:00:00 14,0 11,2 11 6 S 1010,7 20
17.05.2019 01:00:00 14,0 12,0 11 6 S - 10
17.05.2019 00:00:00 15,0 12,0 16 9 S - 10
16.05.2019 23:00:00 14,8 12,1 16 9 S 1011,8 20
16.05.2019 22:00:00 15,0 12,0 16 9 S - 10
16.05.2019 21:00:00 15,0 13,0 16 9 S - 10
16.05.2019 20:00:00 16,8 13,7 16 9 S 1011,4 20
16.05.2019 19:00:00 18,0 13,0 16 9 SSO - 10
16.05.2019 18:00:00 19,0 14,0 13 7 ONO - 10
16.05.2019 17:00:00 18,8 14,1 11 6 ESE 1011,4 20
16.05.2019 16:00:00 18,0 14,0 15 8 E - 10
16.05.2019 15:00:00 19,0 13,0 26 14 E - 10
16.05.2019 14:00:00 18,4 13,1 24 13 E 1011,4 20
16.05.2019 13:00:00 18,0 12,0 15 8 SO - 10
16.05.2019 12:00:00 17,0 11,0 34 18 NE - 10
16.05.2019 11:00:00 16,6 10,7 18 10 NNE 1010,9 20
16.05.2019 10:00:00 14,0 9,0 31 17 NNE - 10
16.05.2019 09:00:00 14,0 9,0 9 5 N - 10
16.05.2019 08:00:00 11,4 8,3 34 18 O 1009,9 20
16.05.2019 07:00:00 - - - - - - -
16.05.2019 06:00:00 10,0 7,0 42 23 O - 10
16.05.2019 05:00:00 10,6 6,8 31 17 O 1009,2 10
16.05.2019 04:00:00 11,0 7,0 31 17 O - 10
16.05.2019 03:00:00 11,0 5,0 26 14 O - 10
16.05.2019 02:00:00 10,6 5,6 15 8 NO 1009,4 20
16.05.2019 01:00:00 10,0 6,0 24 13 NNO - 10
16.05.2019 00:00:00 10,0 7,0 28 15 NNE - 10
15.05.2019 23:00:00 10,2 7,3 31 17 NNE 1009,0 10
15.05.2019 22:00:00 10,0 7,0 31 17 NE - 10
15.05.2019 21:00:00 10,0 8,0 41 22 NE - 10
15.05.2019 20:00:00 10,8 7,9 42 23 NE 1007,7 10
15.05.2019 19:00:00 12,0 9,0 39 21 NE - 10
15.05.2019 18:00:00 12,0 9,0 28 15 NE - 10
15.05.2019 17:00:00 17,2 14,1 21 11 N 1007,6 20
15.05.2019 16:00:00 14,0 11,0 4 2 - - 10
15.05.2019 15:00:00 16,0 13,0 8 4 SSE - 10
15.05.2019 14:00:00 17,2 13,9 24 13 SO 1009,5 20
15.05.2019 13:00:00 18,0 15,0 21 11 ENE - 10
15.05.2019 12:00:00 17,0 14,0 22 12 SE - 10
15.05.2019 11:00:00 16,4 13,1 5 3 NNE 1011,1 20
15.05.2019 10:00:00 16,0 13,0 2 1 ONO - 10
15.05.2019 09:00:00 15,0 12,0 4 2 NO - 10
15.05.2019 08:00:00 14,0 10,9 13 7 O 1011,4 20
15.05.2019 07:00:00 14,0 11,0 29 16 O - 10
15.05.2019 06:00:00 14,0 11,0 26 14 O - 10
15.05.2019 05:00:00 14,0 10,9 22 12 O 1011,4 10
15.05.2019 04:00:00 14,0 11,0 21 11 O - 10
15.05.2019 03:00:00 - - - - - - -
15.05.2019 02:00:00 15,0 12,3 8 4 ONO 1013,8 10
15.05.2019 01:00:00 15,0 12,0 8 4 NO - 10
15.05.2019 00:00:00 - - - - - - -
14.05.2019 23:00:00 15,0 12,3 5 3 NNE 1014,1 10
14.05.2019 22:00:00 15,0 12,0 9 5 ENE - 10
14.05.2019 21:00:00 15,0 12,0 16 9 ENE - 10
14.05.2019 20:00:00 14,0 11,3 18 10 NE 1013,5 20
14.05.2019 19:00:00 16,0 13,0 24 13 ENE - 10
14.05.2019 18:00:00 16,0 13,0 24 13 ENE - 10
14.05.2019 17:00:00 15,8 13,1 28 15 ENE 1013,1 20
14.05.2019 16:00:00 16,0 13,0 26 14 ENE - 10
14.05.2019 15:00:00 17,0 13,0 22 12 ENE - 10
14.05.2019 14:00:00 15,6 12,6 28 15 ENE 1013,4 20
14.05.2019 13:00:00 18,0 14,0 39 21 ENE - 10
14.05.2019 12:00:00 18,0 14,0 29 16 ENE - 10
14.05.2019 11:00:00 16,6 13,4 26 14 ENE 1013,5 20
14.05.2019 10:00:00 15,0 12,0 4 2 O - 10
14.05.2019 09:00:00 14,0 11,0 5 3 N - 10
14.05.2019 08:00:00 13,4 10,4 9 5 NE 1013,1 20
14.05.2019 07:00:00 13,0 10,0 5 3 NE - 10
14.05.2019 06:00:00 13,0 11,0 11 6 OSO - 10
14.05.2019 05:00:00 14,0 11,2 13 7 NNE 1013,1 10
14.05.2019 04:00:00 15,0 12,0 13 7 NNE - 10
14.05.2019 03:00:00 15,0 12,0 5 3 NNO - 10
14.05.2019 02:00:00 15,0 11,6 11 6 NNO 1013,4 20
14.05.2019 01:00:00 15,0 12,0 18 10 NNE - 10
14.05.2019 00:00:00 15,0 12,0 9 5 ONO - 10
13.05.2019 23:00:00 15,2 12,0 39 21 NNE 1013,0 20
13.05.2019 22:00:00 15,0 12,0 44 24 NNE - 10
13.05.2019 21:00:00 15,0 12,0 21 11 NNE - 10

tt = Temperatura
td = dewpoint
ff = velocità del vento
dd = direzione del vento
ppp = reduced air pressure
vv = visibility

Stazioni seguenti

WeatherPro
AMSI
MeteoEarth